Location: N�rnberg
(49.4471°N, 11.0632°E)
Time: 09:17:04
(UTC+01:00)

Tiangong - Pass Details

Date: 18 February 2026
Orbit: 381 x 391 km, 41.5° (Epoch: 7 March)

Event Time Altitude Azimuth Distance (km) Brightness Sun altitude
Rises 19:49:28 0° 256° (WSW) 2,254 2.9 -21.6°
Reaches altitude 10° 19:52:48 10° 218° (SW) 1,396 1.0 -22.1°
Enters shadow 19:53:39 11° 202° (SSW) 1,338 0.7 -22.3°
